LIM260 LICC-LIEE

Flight info

Callsign LIM260
Flight time 1h 31m
Altitude 28000
Route LIBRO DCT ENEPA DCT PAL DCT KAPIL DCT TIVUK/N0294F180 M732 CAR
Aircraft TBM8/L-SDFGRWY/S

Departure

Time 2026-05-04 11:20
Airport Catania-Fontanarossa Airport (LICC)

Arrival

Time 2026-05-04 12:51
Airport Cagliari Elmas Airport (LIEE)
Time Latitude Longitude Altitude Speed Heading
2026-05-04 11:12 37.47039 15.05851 28 ft 0 kts 39°
2026-05-04 11:14 37.47038 15.05851 28 ft 0 kts 39°
2026-05-04 11:16 37.47039 15.05852 28 ft 2 kts 38°
2026-05-04 11:16 37.47064 15.05832 26 ft 4 kts 274°
2026-05-04 11:16 37.47056 15.05793 26 ft 6 kts 243°
2026-05-04 11:17 37.46997 15.05713 26 ft 17 kts 223°
2026-05-04 11:17 37.46910 15.05611 26 ft 16 kts 223°
2026-05-04 11:19 37.46594 15.05613 29 ft 15 kts 82°
2026-05-04 11:19 37.46630 15.06018 30 ft 76 kts 84°
2026-05-04 11:19 37.46703 15.06884 74 ft 118 kts 84°
2026-05-04 11:19 37.46816 15.08042 236 ft 148 kts 84°
2026-05-04 11:20 37.46971 15.09357 693 ft 155 kts 84°
2026-05-04 11:20 37.47107 15.10726 1160 ft 161 kts 84°
2026-05-04 11:20 37.47276 15.12128 1672 ft 162 kts 81°
2026-05-04 11:20 37.47474 15.13532 2196 ft 164 kts 80°
2026-05-04 11:22 37.49018 15.24493 5084 ft 188 kts 79°
2026-05-04 11:22 37.49111 15.26130 5511 ft 189 kts 98°
2026-05-04 11:23 37.48671 15.27683 5939 ft 189 kts 121°
2026-05-04 11:23 37.47800 15.28878 6364 ft 189 kts 145°
2026-05-04 11:24 37.41102 15.26912 8677 ft 191 kts 257°
2026-05-04 11:25 37.40923 15.25264 9061 ft 191 kts 266°
2026-05-04 11:25 37.40765 15.23591 9461 ft 193 kts 265°
2026-05-04 11:25 37.40604 15.21915 9863 ft 194 kts 266°
2026-05-04 11:26 37.40301 15.18525 10613 ft 196 kts 266°
2026-05-04 11:27 37.39678 15.06898 13201 ft 197 kts 285°
2026-05-04 11:28 37.39977 15.05211 13593 ft 198 kts 283°
2026-05-04 11:28 37.40257 15.03492 14000 ft 199 kts 283°
2026-05-04 11:28 37.40543 15.01813 14351 ft 199 kts 283°
2026-05-04 11:28 37.40839 15.00113 14718 ft 199 kts 283°
2026-05-04 11:29 37.41133 14.98403 15066 ft 200 kts 284°
2026-05-04 11:29 37.41426 14.96692 15425 ft 201 kts 284°
2026-05-04 11:29 37.41720 14.94973 15778 ft 201 kts 283°
2026-05-04 11:29 37.42015 14.93250 16139 ft 202 kts 284°
2026-05-04 11:31 37.44007 14.81576 18432 ft 208 kts 284°
2026-05-04 11:33 37.48854 14.70765 20424 ft 206 kts 304°
2026-05-04 11:33 37.49672 14.69275 20701 ft 207 kts 304°
2026-05-04 11:33 37.50490 14.67785 20994 ft 207 kts 304°
2026-05-04 11:34 37.51308 14.66291 21271 ft 207 kts 304°
2026-05-04 11:34 37.52128 14.64797 21563 ft 208 kts 304°
2026-05-04 11:34 37.52947 14.63301 21870 ft 207 kts 304°
2026-05-04 11:34 37.53765 14.61806 22162 ft 207 kts 304°
2026-05-04 11:35 37.54584 14.60309 22443 ft 208 kts 304°
2026-05-04 11:35 37.55403 14.58813 22728 ft 208 kts 304°
2026-05-04 11:35 37.56225 14.57310 23004 ft 208 kts 304°
2026-05-04 11:35 37.57046 14.55807 23272 ft 208 kts 303°
2026-05-04 11:36 37.57868 14.54303 23558 ft 208 kts 303°
2026-05-04 11:36 37.58690 14.52797 23825 ft 208 kts 303°
2026-05-04 11:36 37.59512 14.51291 24038 ft 209 kts 303°
2026-05-04 11:36 37.60338 14.49779 24249 ft 210 kts 304°
2026-05-04 11:37 37.61165 14.48261 24460 ft 210 kts 304°
2026-05-04 11:37 37.61989 14.46740 24679 ft 210 kts 303°
2026-05-04 11:37 37.62607 14.45067 24870 ft 212 kts 293°
2026-05-04 11:37 37.63160 14.43347 25075 ft 211 kts 294°
2026-05-04 11:38 37.63729 14.41635 25271 ft 212 kts 294°
2026-05-04 11:38 37.64299 14.39911 25477 ft 213 kts 294°
2026-05-04 11:38 37.64858 14.38205 25685 ft 214 kts 294°
2026-05-04 11:38 37.65427 14.36469 25884 ft 215 kts 294°
2026-05-04 11:39 37.65999 14.34724 26066 ft 216 kts 294°
2026-05-04 11:39 37.66572 14.32977 26289 ft 215 kts 294°
2026-05-04 11:40 37.70023 14.22426 27409 ft 218 kts 295°
2026-05-04 11:41 37.70601 14.20655 27598 ft 219 kts 295°
2026-05-04 11:41 37.71180 14.18882 27735 ft 220 kts 295°
2026-05-04 11:41 37.71761 14.17100 27929 ft 219 kts 295°
2026-05-04 11:41 37.72342 14.15314 28125 ft 220 kts 295°
2026-05-04 11:42 37.72933 14.13503 28166 ft 227 kts 295°
2026-05-04 11:42 37.73542 14.11634 28170 ft 233 kts 295°
2026-05-04 11:42 37.74165 14.09717 28176 ft 239 kts 295°
2026-05-04 11:42 37.74800 14.07758 28177 ft 243 kts 295°
2026-05-04 11:43 37.75447 14.05768 28177 ft 247 kts 295°
2026-05-04 11:43 37.76102 14.03751 28175 ft 250 kts 295°
2026-05-04 11:43 37.76325 14.03064 28168 ft 251 kts 295°
2026-05-04 11:43 37.76726 14.01827 28169 ft 252 kts 295°
2026-05-04 11:44 37.77390 13.99774 28173 ft 253 kts 295°
2026-05-04 11:44 37.78056 13.97708 28173 ft 255 kts 294°
2026-05-04 11:44 37.78722 13.95622 28172 ft 256 kts 294°
2026-05-04 11:44 37.79392 13.93529 28168 ft 257 kts 294°
2026-05-04 11:45 37.80065 13.91430 28172 ft 258 kts 294°
2026-05-04 11:45 37.80742 13.89319 28170 ft 259 kts 294°
2026-05-04 11:45 37.81418 13.87205 28172 ft 260 kts 294°
2026-05-04 11:45 37.82096 13.85084 28177 ft 261 kts 294°
2026-05-04 11:46 37.82777 13.82951 28167 ft 262 kts 294°
2026-05-04 11:46 37.83449 13.80845 28164 ft 261 kts 294°
2026-05-04 11:46 37.84129 13.78712 28171 ft 262 kts 294°
2026-05-04 11:46 37.84811 13.76575 28168 ft 262 kts 294°
2026-05-04 11:47 37.85489 13.74444 28168 ft 260 kts 294°
2026-05-04 11:47 37.86161 13.72332 28164 ft 258 kts 294°
2026-05-04 11:47 37.86828 13.70236 28158 ft 256 kts 294°
2026-05-04 11:47 37.87489 13.68156 28153 ft 253 kts 294°
2026-05-04 11:48 37.88142 13.66099 28156 ft 251 kts 294°
2026-05-04 11:48 37.88793 13.64044 28152 ft 251 kts 294°
2026-05-04 11:48 37.89447 13.61985 28152 ft 253 kts 294°
2026-05-04 11:48 37.90104 13.59913 28153 ft 254 kts 294°
2026-05-04 11:49 37.90759 13.57841 28151 ft 254 kts 294°
2026-05-04 11:49 37.91415 13.55768 28153 ft 253 kts 293°
2026-05-04 11:49 37.92070 13.53698 28157 ft 253 kts 294°
2026-05-04 11:49 37.92725 13.51626 28158 ft 254 kts 293°
2026-05-04 11:50 37.93380 13.49548 28155 ft 254 kts 294°
2026-05-04 11:50 37.94036 13.47466 28158 ft 255 kts 294°
2026-05-04 11:50 37.94694 13.45382 28154 ft 254 kts 293°
2026-05-04 11:50 37.95349 13.43302 28154 ft 255 kts 293°
2026-05-04 11:51 37.96008 13.41210 28157 ft 256 kts 293°
2026-05-04 11:51 37.96665 13.39118 28155 ft 256 kts 294°
2026-05-04 11:51 37.97323 13.37025 28156 ft 256 kts 293°
2026-05-04 11:51 37.97980 13.34930 28158 ft 256 kts 293°
2026-05-04 11:52 37.98640 13.32828 28157 ft 256 kts 293°
2026-05-04 11:52 37.99297 13.30735 28158 ft 256 kts 293°
2026-05-04 11:52 37.99954 13.28638 28155 ft 255 kts 293°
2026-05-04 11:52 38.00607 13.26552 28151 ft 253 kts 294°
2026-05-04 11:53 38.01253 13.24503 28160 ft 254 kts 293°
2026-05-04 11:53 38.01897 13.22419 28161 ft 253 kts 293°
2026-05-04 11:53 38.02545 13.20339 28161 ft 253 kts 293°
2026-05-04 11:53 38.03197 13.18262 28156 ft 254 kts 293°
2026-05-04 11:55 38.07781 13.03559 28160 ft 257 kts 292°
2026-05-04 11:55 38.08438 13.01445 28159 ft 257 kts 292°
2026-05-04 11:56 38.09094 12.99333 28160 ft 257 kts 292°
2026-05-04 11:56 38.09750 12.97222 28158 ft 257 kts 292°
2026-05-04 11:56 38.10403 12.95114 28161 ft 257 kts 292°
2026-05-04 11:56 38.11056 12.93008 28160 ft 256 kts 292°
2026-05-04 11:57 38.11709 12.90898 28158 ft 256 kts 292°
2026-05-04 11:57 38.12362 12.88790 28160 ft 256 kts 292°
2026-05-04 11:57 38.13013 12.86682 28160 ft 256 kts 292°
2026-05-04 11:57 38.13666 12.84571 28159 ft 256 kts 292°
2026-05-04 11:58 38.14317 12.82462 28158 ft 256 kts 292°
2026-05-04 11:58 38.14967 12.80354 28160 ft 256 kts 292°
2026-05-04 11:58 38.15616 12.78248 28160 ft 256 kts 292°
2026-05-04 11:58 38.16267 12.76134 28162 ft 256 kts 292°
2026-05-04 11:59 38.16917 12.74024 28162 ft 257 kts 292°
2026-05-04 11:59 38.17569 12.71904 28159 ft 258 kts 292°
2026-05-04 11:59 38.18221 12.69784 28158 ft 258 kts 292°
2026-05-04 11:59 38.18863 12.67691 28161 ft 257 kts 292°
2026-05-04 12:00 38.19522 12.65544 28161 ft 257 kts 292°
2026-05-04 12:00 38.20171 12.63428 28161 ft 257 kts 292°
2026-05-04 12:00 38.20810 12.61341 28153 ft 257 kts 292°
2026-05-04 12:00 38.21458 12.59225 28153 ft 257 kts 292°
2026-05-04 12:01 38.22105 12.57110 28153 ft 256 kts 292°
2026-05-04 12:01 38.22752 12.54995 28153 ft 256 kts 292°
2026-05-04 12:02 38.26613 12.42328 28155 ft 256 kts 291°
2026-05-04 12:03 38.27256 12.40216 28154 ft 256 kts 291°
2026-05-04 12:03 38.27897 12.38104 28154 ft 256 kts 291°
2026-05-04 12:03 38.28539 12.35991 28155 ft 256 kts 291°
2026-05-04 12:03 38.29179 12.33881 28156 ft 256 kts 291°
2026-05-04 12:04 38.29819 12.31769 28152 ft 256 kts 291°
2026-05-04 12:04 38.30461 12.29650 28154 ft 256 kts 291°
2026-05-04 12:04 38.31102 12.27531 28150 ft 256 kts 291°
2026-05-04 12:04 38.31743 12.25414 28152 ft 256 kts 291°
2026-05-04 12:05 38.32382 12.23298 28148 ft 256 kts 291°
2026-05-04 12:05 38.33022 12.21179 28150 ft 256 kts 291°
2026-05-04 12:05 38.33661 12.19061 28147 ft 256 kts 291°
2026-05-04 12:05 38.34290 12.16973 28149 ft 256 kts 291°
2026-05-04 12:06 38.34929 12.14851 28147 ft 256 kts 291°
2026-05-04 12:06 38.35566 12.12733 28147 ft 256 kts 290°
2026-05-04 12:06 38.36086 12.10566 28144 ft 256 kts 287°
2026-05-04 12:06 38.36594 12.08391 28145 ft 256 kts 288°
2026-05-04 12:07 38.37112 12.06220 28146 ft 256 kts 287°
2026-05-04 12:07 38.37626 12.04047 28146 ft 256 kts 287°
2026-05-04 12:07 38.38137 12.01869 28145 ft 256 kts 287°
2026-05-04 12:07 38.38648 11.99694 28144 ft 256 kts 287°
2026-05-04 12:08 38.39159 11.97516 28146 ft 256 kts 287°
2026-05-04 12:08 38.39670 11.95338 28145 ft 256 kts 287°
2026-05-04 12:08 38.40181 11.93157 28143 ft 257 kts 287°
2026-05-04 12:08 38.40691 11.90981 28144 ft 257 kts 287°
2026-05-04 12:09 38.41200 11.88802 28140 ft 257 kts 287°
2026-05-04 12:09 38.41711 11.86618 28139 ft 257 kts 287°
2026-05-04 12:09 38.42220 11.84436 28141 ft 257 kts 287°
2026-05-04 12:09 38.42729 11.82256 28141 ft 257 kts 287°
2026-05-04 12:10 38.43231 11.80099 28141 ft 257 kts 287°
2026-05-04 12:10 38.43738 11.77921 28141 ft 257 kts 287°
2026-05-04 12:10 38.44247 11.75736 28136 ft 257 kts 287°
2026-05-04 12:10 38.44754 11.73550 28139 ft 257 kts 287°
2026-05-04 12:11 38.45261 11.71371 28137 ft 257 kts 287°
2026-05-04 12:11 38.45766 11.69191 28135 ft 256 kts 287°
2026-05-04 12:11 38.46272 11.67007 28134 ft 256 kts 287°
2026-05-04 12:11 38.46777 11.64825 28137 ft 256 kts 287°
2026-05-04 12:12 38.47283 11.62639 28131 ft 256 kts 287°
2026-05-04 12:12 38.47788 11.60453 28133 ft 256 kts 287°
2026-05-04 12:12 38.48292 11.58268 28128 ft 257 kts 287°
2026-05-04 12:12 38.48797 11.56082 28128 ft 257 kts 287°
2026-05-04 12:13 38.49300 11.53895 28128 ft 257 kts 287°
2026-05-04 12:14 38.52808 11.38614 28124 ft 257 kts 286°
2026-05-04 12:15 38.53309 11.36425 28122 ft 257 kts 286°
2026-05-04 12:15 38.53809 11.34236 28123 ft 257 kts 286°
2026-05-04 12:15 38.54308 11.32047 28123 ft 257 kts 286°
2026-05-04 12:15 38.54808 11.29856 28122 ft 257 kts 286°
2026-05-04 12:16 38.55305 11.27674 28124 ft 257 kts 286°
2026-05-04 12:16 38.55805 11.25476 28122 ft 257 kts 286°
2026-05-04 12:16 38.56304 11.23283 28119 ft 257 kts 286°
2026-05-04 12:16 38.56802 11.21090 28120 ft 257 kts 286°
2026-05-04 12:17 38.57299 11.18900 28117 ft 257 kts 286°
2026-05-04 12:17 38.57629 11.17445 28116 ft 257 kts 286°
2026-05-04 12:17 38.58126 11.15249 28115 ft 257 kts 286°
2026-05-04 12:17 38.58624 11.13053 28114 ft 257 kts 286°
2026-05-04 12:18 38.59120 11.10858 28113 ft 257 kts 286°
2026-05-04 12:18 38.59616 11.08661 28113 ft 257 kts 285°
2026-05-04 12:18 38.60113 11.06463 28115 ft 257 kts 285°
2026-05-04 12:18 38.60608 11.04265 28112 ft 257 kts 285°
2026-05-04 12:19 38.61104 11.02065 28111 ft 258 kts 285°
2026-05-04 12:19 38.61601 10.99856 28113 ft 258 kts 285°
2026-05-04 12:19 38.62095 10.97656 28110 ft 258 kts 285°
2026-05-04 12:19 38.62591 10.95450 28106 ft 258 kts 285°
2026-05-04 12:20 38.63085 10.93246 28105 ft 258 kts 285°
2026-05-04 12:20 38.63580 10.91040 28108 ft 258 kts 285°
2026-05-04 12:20 38.64073 10.88836 28104 ft 258 kts 285°
2026-05-04 12:20 38.64567 10.86627 28106 ft 258 kts 285°
2026-05-04 12:21 38.65062 10.84416 28102 ft 258 kts 285°
2026-05-04 12:21 38.65555 10.82208 28101 ft 258 kts 285°
2026-05-04 12:21 38.66048 10.79997 28106 ft 258 kts 285°
2026-05-04 12:21 38.66541 10.77786 28106 ft 258 kts 285°
2026-05-04 12:22 38.67033 10.75574 28103 ft 259 kts 285°
2026-05-04 12:22 38.67526 10.73361 28100 ft 259 kts 285°
2026-05-04 12:22 38.68018 10.71145 28101 ft 259 kts 285°
2026-05-04 12:22 38.68510 10.68932 28100 ft 259 kts 285°
2026-05-04 12:23 38.68995 10.66744 28099 ft 259 kts 285°
2026-05-04 12:23 38.69486 10.64527 28098 ft 259 kts 285°
2026-05-04 12:23 38.69977 10.62309 28096 ft 259 kts 285°
2026-05-04 12:23 38.70467 10.60091 28098 ft 259 kts 285°
2026-05-04 12:24 38.70957 10.57874 28098 ft 259 kts 285°
2026-05-04 12:24 38.71448 10.55649 28099 ft 259 kts 285°
2026-05-04 12:24 38.71937 10.53431 28096 ft 259 kts 285°
2026-05-04 12:24 38.72426 10.51211 28093 ft 259 kts 285°
2026-05-04 12:25 38.72915 10.48990 28093 ft 259 kts 285°
2026-05-04 12:25 38.73403 10.46766 28095 ft 259 kts 284°
2026-05-04 12:25 38.73891 10.44546 28093 ft 259 kts 284°
2026-05-04 12:25 38.74379 10.42322 28094 ft 259 kts 284°
2026-05-04 12:26 38.74866 10.40097 28094 ft 259 kts 284°
2026-05-04 12:26 38.75353 10.37873 28091 ft 259 kts 284°
2026-05-04 12:26 38.75840 10.35646 28090 ft 259 kts 284°
2026-05-04 12:26 38.76322 10.33440 28126 ft 258 kts 284°
2026-05-04 12:27 38.76816 10.31172 27789 ft 270 kts 284°
2026-05-04 12:27 38.77329 10.28820 27458 ft 278 kts 284°
2026-05-04 12:27 38.77857 10.26399 27136 ft 286 kts 284°
2026-05-04 12:27 38.78396 10.23922 26815 ft 291 kts 284°
2026-05-04 12:28 38.78943 10.21405 26496 ft 295 kts 284°
2026-05-04 12:28 38.79487 10.18898 26182 ft 296 kts 284°
2026-05-04 12:28 38.80047 10.16316 25866 ft 298 kts 284°
2026-05-04 12:28 38.80595 10.13785 25558 ft 299 kts 284°
2026-05-04 12:29 38.81152 10.11212 25249 ft 300 kts 283°
2026-05-04 12:29 38.81711 10.08621 24948 ft 302 kts 283°
2026-05-04 12:29 38.82272 10.06022 24643 ft 303 kts 283°
2026-05-04 12:29 38.82836 10.03410 24344 ft 304 kts 283°
2026-05-04 12:30 38.83400 10.00789 24046 ft 306 kts 283°
2026-05-04 12:30 38.83966 9.98155 23754 ft 307 kts 283°
2026-05-04 12:30 38.84534 9.95511 23421 ft 308 kts 283°
2026-05-04 12:30 38.85346 9.92965 23071 ft 312 kts 297°
2026-05-04 12:31 38.86628 9.90695 22605 ft 317 kts 306°
2026-05-04 12:31 38.88015 9.88484 21834 ft 319 kts 306°
2026-05-04 12:31 38.89397 9.86251 21078 ft 320 kts 306°
2026-05-04 12:31 38.90784 9.84008 20345 ft 321 kts 306°
2026-05-04 12:32 38.92180 9.81754 19624 ft 322 kts 307°
2026-05-04 12:32 38.94967 9.77249 18225 ft 321 kts 307°
2026-05-04 12:32 38.96324 9.75058 18028 ft 304 kts 307°
2026-05-04 12:33 38.97645 9.72916 17240 ft 308 kts 307°
2026-05-04 12:33 38.98948 9.70793 16481 ft 296 kts 306°
2026-05-04 12:33 39.00178 9.68776 15748 ft 285 kts 306°
2026-05-04 12:33 39.01402 9.66772 14999 ft 278 kts 305°
2026-05-04 12:34 39.02569 9.64864 14309 ft 273 kts 305°
2026-05-04 12:34 39.03733 9.62957 13579 ft 269 kts 304°
2026-05-04 12:34 39.04879 9.61079 12804 ft 265 kts 304°
2026-05-04 12:34 39.06009 9.59227 12054 ft 261 kts 304°
2026-05-04 12:35 39.07120 9.57406 11312 ft 257 kts 304°
2026-05-04 12:35 39.08214 9.55608 10583 ft 256 kts 304°
2026-05-04 12:35 39.09332 9.53770 10096 ft 259 kts 304°
2026-05-04 12:35 39.10452 9.52017 9700 ft 257 kts 311°
2026-05-04 12:36 39.11976 9.50665 8930 ft 278 kts 330°
2026-05-04 12:36 39.13863 9.49908 8189 ft 290 kts 344°
2026-05-04 12:36 39.15841 9.49307 7462 ft 293 kts 343°
2026-05-04 12:36 39.17717 9.48677 7057 ft 265 kts 342°
2026-05-04 12:37 39.19492 9.48098 7004 ft 260 kts 343°
2026-05-04 12:37 39.21151 9.47569 7005 ft 257 kts 342°
2026-05-04 12:37 39.22877 9.47011 7004 ft 255 kts 342°
2026-05-04 12:37 39.24592 9.46455 7004 ft 253 kts 342°
2026-05-04 12:38 39.26297 9.45901 7010 ft 252 kts 342°
2026-05-04 12:38 39.28000 9.45351 7002 ft 252 kts 343°
2026-05-04 12:38 39.29698 9.44800 6999 ft 250 kts 342°
2026-05-04 12:38 39.31381 9.44253 7004 ft 249 kts 342°
2026-05-04 12:39 39.33062 9.43706 7003 ft 250 kts 342°
2026-05-04 12:39 39.34727 9.43171 7007 ft 251 kts 342°
2026-05-04 12:39 39.36420 9.42622 7002 ft 250 kts 342°
2026-05-04 12:39 39.38038 9.41858 7005 ft 246 kts 326°
2026-05-04 12:40 39.39375 9.40509 7012 ft 243 kts 310°
2026-05-04 12:40 39.40343 9.38740 7010 ft 240 kts 294°
2026-05-04 12:40 39.41109 9.36832 7011 ft 239 kts 296°
2026-05-04 12:40 39.41908 9.34935 7006 ft 240 kts 295°
2026-05-04 12:41 39.42690 9.33037 7010 ft 238 kts 295°
2026-05-04 12:41 39.43465 9.31137 7004 ft 239 kts 294°
2026-05-04 12:41 39.44240 9.29241 6984 ft 238 kts 295°
2026-05-04 12:41 39.45019 9.27350 6985 ft 238 kts 295°
2026-05-04 12:42 39.45795 9.25453 6989 ft 239 kts 295°
2026-05-04 12:42 39.46571 9.23558 6995 ft 238 kts 295°
2026-05-04 12:42 39.47350 9.21660 7000 ft 239 kts 295°
2026-05-04 12:42 39.48127 9.19757 7000 ft 240 kts 294°
2026-05-04 12:43 39.48905 9.17849 6999 ft 240 kts 294°
2026-05-04 12:43 39.49686 9.15940 6997 ft 240 kts 294°
2026-05-04 12:43 39.50463 9.14034 6997 ft 239 kts 294°
2026-05-04 12:43 39.51237 9.12125 6999 ft 238 kts 292°
2026-05-04 12:44 39.51687 9.10081 6777 ft 242 kts 274°
2026-05-04 12:44 39.51583 9.07862 6295 ft 253 kts 256°
2026-05-04 12:44 39.50908 9.05752 5798 ft 257 kts 237°
2026-05-04 12:44 39.49708 9.04030 5306 ft 259 kts 218°
2026-05-04 12:45 39.48233 9.02684 4828 ft 259 kts 215°
2026-05-04 12:45 39.46849 9.01356 4332 ft 245 kts 217°
2026-05-04 12:45 39.45484 9.00046 3829 ft 238 kts 215°
2026-05-04 12:45 39.44149 8.98806 3334 ft 235 kts 214°
2026-05-04 12:46 39.42839 8.97575 2830 ft 232 kts 214°
2026-05-04 12:46 39.41531 8.96358 2359 ft 231 kts 213°
2026-05-04 12:46 39.40280 8.95168 2301 ft 213 kts 214°
2026-05-04 12:46 39.39136 8.94109 2302 ft 201 kts 213°
2026-05-04 12:47 39.38018 8.93425 2290 ft 154 kts 192°
2026-05-04 12:47 39.37032 8.93256 2291 ft 135 kts 178°
2026-05-04 12:47 39.36051 8.93429 2297 ft 157 kts 165°
2026-05-04 12:47 39.34983 8.94054 2305 ft 181 kts 146°
2026-05-04 12:48 39.33971 8.95188 2107 ft 204 kts 137°
2026-05-04 12:48 39.32924 8.96413 1841 ft 193 kts 138°
2026-05-04 12:48 39.31990 8.97485 1588 ft 167 kts 138°
2026-05-04 12:48 39.31164 8.98442 1378 ft 154 kts 138°
2026-05-04 12:49 39.30384 8.99356 1175 ft 150 kts 139°
2026-05-04 12:49 39.29631 9.00233 982 ft 142 kts 140°
2026-05-04 12:49 39.28913 9.01090 833 ft 140 kts 141°
2026-05-04 12:49 39.28219 9.01903 681 ft 123 kts 142°
2026-05-04 12:50 39.27596 9.02605 445 ft 115 kts 144°
2026-05-04 12:50 39.27007 9.03282 298 ft 112 kts 140°
2026-05-04 12:50 39.26427 9.03944 120 ft 110 kts 139°
2026-05-04 12:50 39.25876 9.04587 19 ft 100 kts 138°
2026-05-04 12:51 39.25456 9.05075 13 ft 65 kts 138°
2026-05-04 12:51 39.25172 9.05404 11 ft 45 kts 138°
2026-05-04 12:51 39.25041 9.05568 13 ft 13 kts 92°
2026-05-04 12:51 39.25101 9.05715 12 ft 21 kts 66°
2026-05-04 12:52 39.25151 9.05834 12 ft 10 kts 62°
2026-05-04 12:52 39.25180 9.05898 11 ft 8 kts 59°
2026-05-04 12:52 39.25195 9.05961 11 ft 7 kts 85°
2026-05-04 12:52 39.25184 9.06009 11 ft 4 kts 130°
2026-05-04 12:53 39.25169 9.06028 11 ft 4 kts 137°
2026-05-04 12:53 39.25152 9.06049 11 ft 1 kts 136°
2026-05-04 12:53 39.25135 9.06069 11 ft 4 kts 143°
2026-05-04 12:53 39.25117 9.06086 11 ft 0 kts 143°
2026-05-04 12:54 39.25117 9.06085 11 ft 0 kts 143°